Tracking 19176 objects as of 26-May-2018
HD Live streaming from Space Station
objects crossing your sky now

COSMOS 1349

Track COSMOS 1349 now!
10-day predictions
COSMOS 1349 is classified as:


NORAD ID: 13127
Int'l Code: 1982-030A
Perigee: 971.3 km
Apogee: 1,015.0 km
Inclination: 82.9 °
Period: 104.8 minutes
Semi major axis: 7364 km
RCS: 2.1672 m2 (large)
Launch date: April 8, 1982
Source: Commonwealth of Independent States (former USSR) (CIS)
Launch site: PLESETSK MISSILE AND SPACE COMPLEX (PKMTR)
aabbcc
Your satellite tracking list
Your tracking list is empty




NASA's NSSDC Master Catalog

Two Line Element Set (TLE):
1 13127U 82030A   18146.57727323  .00000050  00000-0  37444-4 0  9994
2 13127  82.9293 182.6038 0029666 312.2737 212.7400 13.73790389811377
Source of the keplerian elements: AFSPC